Location: Wiesbaden
(50.0830°N, 8.2500°E)
Time: 17:51:20
(UTC+02:00)

ISS - Visible Passes

Search period start: 12 May 2021 00:00
Search period end: 22 May 2021 00:00
Orbit: 417 x 422 km, 51.6° (Epoch: 12 May)

Date Brightness Start Highest point End Pass type
(mag) Time Alt. Az. Time Alt. Az. Time Alt. Az.
12 May -1.7 01:18:16 20° ENE 01:18:16 20° ENE 01:19:29 10° ENE visible
12 May -3.4 02:51:12 24° WNW 02:53:01 64° N 02:56:23 10° E visible
12 May -3.8 04:26:32 10° WNW 04:29:55 76° SSW 04:33:18 10° ESE visible
13 May -3.5 02:05:02 56° NW 02:05:31 66° N 02:08:54 10° ENE visible
13 May -3.8 03:39:06 10° WNW 03:42:29 86° NNE 03:45:53 10° ESE visible
14 May -3.3 01:18:39 55° NE 01:18:39 55° NE 01:21:27 10° ENE visible
14 May -3.6 02:51:39 10° WNW 02:55:02 74° N 02:58:25 10° E visible
14 May -3.3 04:28:33 10° W 04:31:45 40° SSW 04:34:57 10° SE visible
14 May -2.9 22:51:04 10° SSW 22:54:01 28° SE 22:55:36 19° ESE visible
15 May -3.8 00:27:13 10° WSW 00:30:36 86° N 00:33:59 10° ENE visible
15 May -3.4 02:04:11 10° WNW 02:07:33 67° N 02:10:56 10° E visible
15 May -3.7 03:41:03 10° WNW 03:44:23 56° SSW 03:47:42 10° SE visible
15 May -2.4 22:04:12 10° S 22:06:44 20° SE 22:09:16 10° E visible
15 May -3.9 23:39:48 10° WSW 23:43:10 76° SSE 23:46:33 10° ENE visible
16 May -3.4 01:16:43 10° W 01:20:04 64° N 01:23:27 10° E visible
16 May -3.9 02:53:36 10° WNW 02:56:59 75° SSW 03:00:21 10° ESE visible
16 May -2.4 04:30:53 10° W 04:33:25 20° SW 04:35:56 10° S visible
16 May -3.7 22:52:27 10° SW 22:55:45 57° SSE 22:59:05 10° ENE visible
17 May -3.4 00:29:13 10° W 00:32:35 66° N 00:35:58 10° E visible
17 May -3.8 02:06:10 10° WNW 02:09:33 87° NNE 02:12:56 10° ESE visible
17 May -2.9 03:43:10 10° W 03:46:08 28° SW 03:49:04 10° SSE visible
17 May -3.3 22:05:12 10° SW 22:08:23 40° SSE 22:11:35 10° E visible
17 May -3.6 23:41:44 10° W 23:45:06 73° N 23:48:30 10° ENE visible
18 May -3.6 01:18:42 10° WNW 01:22:05 74° N 01:22:57 46° E visible
18 May -1.2 02:55:36 10° W 02:55:50 11° W 02:55:50 11° W visible
18 May -3.8 22:54:16 10° WSW 22:57:39 86° NNW 23:01:02 10° ENE visible
19 May -3.4 00:31:14 10° WNW 00:34:36 67° N 00:36:32 23° E visible
19 May -2.0 02:08:06 10° WNW 02:09:27 22° W 02:09:27 22° W visible
19 May -3.8 22:06:50 10° WSW 22:10:12 76° SSE 22:13:35 10° ENE visible
19 May -3.4 23:43:45 10° W 23:47:07 64° N 23:50:23 11° E visible
20 May -3.3 01:20:39 10° WNW 01:23:18 51° W 01:23:18 51° W visible
20 May -3.4 22:56:16 10° W 22:59:37 66° N 23:02:59 10° E visible
21 May -3.8 00:33:11 10° WNW 00:36:35 87° NNE 00:37:14 56° E visible
21 May -3.5 22:08:46 10° W 22:12:08 73° NNW 22:15:31 10° ENE visible
21 May -3.6 23:45:44 10° WNW 23:49:06 74° N 23:51:12 21° E visible
